This is the latest recevied weather packets stored in our database for station/object KE0QIB. If no packets are shown the sender has not sent any weather packets the latest 10 day(s).
| Time | Temp. | Humidity | Pressure | Rain* | Wind** | Luminosity | Snow |
|---|---|---|---|---|---|---|---|
| 1777993613 | 4.44° C | 49% | 1001.4 hPa | 0 mm | - | - | - |
| 1777993313 | 4.44° C | 51% | 1001.4 hPa | 0 mm | - | - | - |
| 1777993013 | 4.44° C | 52% | 1001.4 hPa | 0 mm | - | - | - |
| 1777992713 | 3.89° C | 54% | 1001.8 hPa | 0 mm | - | - | - |
| 1777992413 | 3.89° C | 55% | 1001.8 hPa | 0 mm | - | - | - |
| 1777992113 | 3.89° C | 54% | 1001.8 hPa | 0 mm | - | - | - |
| 1777991813 | 3.89° C | 58% | 1001.8 hPa | 0 mm | - | - | - |
| 1777991513 | 3.33° C | 58% | 1001.8 hPa | 0 mm | - | - | - |
| 1777991213 | 3.33° C | 56% | 1001.8 hPa | 0 mm | - | - | - |
| 1777990913 | 3.33° C | 58% | 1001.8 hPa | 0 mm | - | - | - |
| 1777990613 | 3.33° C | 59% | 1001.8 hPa | 0 mm | - | - | - |
| 1777990013 | 3.33° C | 64% | 1001.7 hPa | 0 mm | - | - | - |
| 1777989713 | 2.78° C | 64% | 1001.7 hPa | 0 mm | - | - | - |
| 1777989413 | 2.78° C | 63% | 1001.7 hPa | 0 mm | - | - | - |
| 1777989113 | 2.78° C | 64% | 1001.3 hPa | 0 mm | - | - | - |
| 1777988813 | 2.78° C | 63% | 1001.3 hPa | 0 mm | - | - | - |
| 1777988513 | 2.78° C | 64% | 1001.3 hPa | 0 mm | - | - | - |
| 1777988213 | 2.78° C | 65% | 1001.3 hPa | 0 mm | - | - | - |
| 1777987913 | 2.78° C | 63% | 1001.3 hPa | 0 mm | - | - | - |
| 1777987613 | 2.78° C | 63% | 1001.3 hPa | 0 mm | - | - | - |
| 1777987313 | 2.78° C | 63% | 1001 hPa | 0 mm | - | - | - |
| 1777987013 | 2.78° C | 63% | 1001 hPa | 0 mm | - | - | - |
| 1777986713 | 2.78° C | 62% | 1001 hPa | 0 mm | - | - | - |
| 1777986413 | 2.78° C | 63% | 1000.8 hPa | 0 mm | - | - | - |
| 1777986113 | 2.78° C | 61% | 1000.8 hPa | 0 mm | - | - | - |
* Rain latest hour (hover to see other rain measurements)
** Current wind speed in m/s (hover to see current wind gust speed)